Whidbey Island, WA

7:17 PM PDT on July 20, 2017 (GMT -0700)
Whidbey Island Naval Air Station

Weather History for KNUW - November, 2012

Change the Weather History Date:

Monday, November 12, 2012

  Actual Average Record
Temperature  
Mean Temperature 48 °F -  
Max Temperature 50 °F 50 °F 68 °F (2013)
Min Temperature 46 °F 38 °F 26 °F (2014)
Degree Days  
Heating Degree Days 17    
Moisture  
Dew Point 44 °F    
Average Humidity 86    
Maximum Humidity 93    
Minimum Humidity 80    
Precipitation  
Precipitation 0.01 in - - ()
Sea Level Pressure  
Sea Level Pressure 30.15 in    
Wind  
Wind Speed 12 mph (ESE)    
Max Wind Speed 22 mph    
Max Gust Speed 30 mph    
Visibility 10 miles    
Events Rain    
Averages and records for this station are not official NWS values.
T = Trace of Precipitation, MM = Missing Value Source: NWS Daily Summary

Daily Weather History Graph

Daily Weather History Graph

Search for Another Location

Airport or City:

Trip Planner

Search our weather history database for the weather conditions in past years. The results will help you decide how hot, cold, wet, or windy it might be!

Date:

Astronomy

Nov. 12, 2012 Rise Set
Actual Time 7:14 AM PST 4:34 PM PST
Civil Twilight 6:40 AM PST 5:08 PM PST
Nautical Twilight 6:02 AM PST 5:46 PM PST
Astronomical Twilight 5:25 AM PST 6:23 PM PST
Moon 5:42 AM PST (11/12) 3:45 PM PST (11/12)
Length of Visible Light 10h 28m
Length of Day
9h 20m
Waning Crescent, 2% of the Moon is Illuminated
Nov 12
Waning Crescent
Nov 13
New
Nov 20
First Quarter
Nov 28
Full
Dec 6
Last Quarter

Hourly Weather History & Observations

Time (PST) Temp. Windchill Dew Point Humidity Pressure Visibility Wind Dir Wind Speed Gust Speed Precip Events Conditions
12:56 AM 46.0 °F 38.0 °F 41.0 °F 83% 30.05 in 10.0 mi SE 21.9 mph 27.6 mph N/A   Overcast
1:04 AM 46.4 °F 39.5 °F 41.0 °F 81% 30.04 in 10.0 mi SE 17.3 mph 29.9 mph N/A   Overcast
1:56 AM 46.0 °F 39.0 °F 41.0 °F 83% 30.05 in 10.0 mi SE 17.3 mph 26.5 mph 0.00 in   Overcast
2:56 AM 46.0 °F 38.5 °F 42.1 °F 86% 30.05 in 10.0 mi SE 19.6 mph 25.3 mph N/A   Overcast
3:56 AM 46.9 °F - 42.1 °F 83% 30.06 in 10.0 mi SE 17.3 mph 24.2 mph N/A   Overcast
4:56 AM 46.9 °F - 42.1 °F 83% 30.07 in 10.0 mi SE 13.8 mph - N/A   Overcast
5:56 AM 46.9 °F - 42.1 °F 83% 30.09 in 10.0 mi SE 9.2 mph - N/A   Overcast
6:56 AM 46.9 °F - 43.0 °F 86% 30.10 in 10.0 mi ESE 8.1 mph - N/A   Overcast
7:56 AM 46.9 °F - 43.0 °F 86% 30.12 in 10.0 mi SE 9.2 mph - N/A   Overcast
8:54 AM 46.4 °F 42.9 °F 42.8 °F 87% 30.12 in 10.0 mi SE 6.9 mph - N/A   Overcast
8:56 AM 46.9 °F - 43.0 °F 86% 30.13 in 10.0 mi SE 5.8 mph - N/A   Overcast
9:56 AM 46.9 °F - 43.0 °F 86% 30.14 in 10.0 mi ESE 6.9 mph - N/A   Overcast
10:56 AM 48.0 °F - 44.1 °F 86% 30.17 in 10.0 mi ESE 5.8 mph - N/A   Overcast
11:56 AM 48.9 °F - 45.0 °F 86% 30.16 in 10.0 mi SE 6.9 mph - N/A   Overcast
12:56 PM 48.9 °F - 45.0 °F 86% 30.16 in 10.0 mi ESE 11.5 mph - N/A   Overcast
1:10 PM 48.2 °F - 44.6 °F 87% 30.15 in 10.0 mi ESE 11.5 mph - N/A   Overcast
1:56 PM 50.0 °F - 44.1 °F 80% 30.16 in 10.0 mi SSE 9.2 mph - N/A   Scattered Clouds
2:56 PM 48.9 °F - 44.1 °F 83% 30.17 in 10.0 mi East 10.4 mph - N/A   Partly Cloudy
3:19 PM 48.2 °F - 44.6 °F 87% 30.16 in 10.0 mi ESE 8.1 mph - N/A   Mostly Cloudy
3:42 PM 48.2 °F - 44.6 °F 87% 30.16 in 10.0 mi ESE 6.9 mph - N/A   Overcast
3:56 PM 48.0 °F - 44.1 °F 86% 30.17 in 10.0 mi East 8.1 mph - N/A   Overcast
4:05 PM 48.2 °F - 44.6 °F 87% 30.16 in 10.0 mi ESE 9.2 mph - N/A   Mostly Cloudy
4:56 PM 46.9 °F - 44.1 °F 90% 30.18 in 10.0 mi ESE 3.5 mph - N/A   Overcast
5:19 PM 46.4 °F 42.4 °F 44.6 °F 93% 30.16 in 10.0 mi ESE 8.1 mph - 0.00 in Rain Light Rain
5:56 PM 48.0 °F - 44.1 °F 86% 30.17 in 10.0 mi East 9.2 mph - 0.00 in Rain Light Rain
6:56 PM 48.0 °F - 45.0 °F 89% 30.18 in 10.0 mi ESE 5.8 mph - 0.00 in   Overcast
7:10 PM 48.2 °F - 44.6 °F 87% 30.17 in 10.0 mi East 5.8 mph - N/A   Overcast
7:48 PM 48.2 °F - 44.6 °F 87% 30.17 in 10.0 mi East 6.9 mph - N/A   Overcast
7:56 PM 48.0 °F - 44.1 °F 86% 30.18 in 10.0 mi East 5.8 mph - N/A   Overcast
8:12 PM 48.2 °F - 44.6 °F 87% 30.16 in 10.0 mi East 6.9 mph - N/A   Overcast
8:25 PM 48.2 °F - 44.6 °F 87% 30.16 in 10.0 mi East 5.8 mph - N/A   Mostly Cloudy
8:34 PM 48.2 °F - 44.6 °F 87% 30.17 in 10.0 mi East 5.8 mph - N/A   Overcast
8:56 PM 48.9 °F - 45.0 °F 86% 30.17 in 10.0 mi East 8.1 mph - N/A   Overcast
9:56 PM 48.9 °F - 45.0 °F 86% 30.19 in 10.0 mi ESE 5.8 mph - N/A   Overcast
10:31 PM 48.2 °F - 44.6 °F 87% 30.19 in 10.0 mi ESE 4.6 mph - N/A   Overcast
10:56 PM 48.0 °F - 45.0 °F 89% 30.20 in 10.0 mi SE 4.6 mph - N/A   Overcast
11:09 PM 48.2 °F - 44.6 °F 87% 30.19 in 10.0 mi ESE 5.8 mph - 0.00 in Rain Light Rain
11:22 PM 48.2 °F - 44.6 °F 87% 30.19 in 10.0 mi East 5.8 mph - 0.01 in Rain Light Rain
11:56 PM 48.0 °F - 45.0 °F 89% 30.20 in 7.0 mi ESE 5.8 mph - 0.01 in   Overcast